Location: Alsip
(41.6689°N, 87.7387°W)
Time: 21:14:36
(UTC+00:00)

Cosmos 1048 Rocket - Pass Details

Date: 27 October 2020
Orbit: 743 x 792 km, 74.0° (Epoch: 03 December)

Event Time Altitude Azimuth Distance (km) Brightness Sun altitude
Exits shadow 08:39:48 12° 26° (NNE) 2,221 6.8 -40.8°
Drops below altitude 10° 08:40:09 10° 25° (NNE) 2,351 6.9 -40.7°
Sets 08:42:34 0° 23° (NNE) 3,289 7.8 -40.3°
